Location: Newark
(13.6797°N, 8.5297°E)
Time: 05:28:41
(UTC+00:00)

Courier 1B Rocket - Pass Details

Date: 25 January 2020
Orbit: 920 x 1202 km, 28.2° (Epoch: 17 February)

Event Time Altitude Azimuth Distance (km) Brightness Sun altitude
Rises 10:46:45 0° 271° (W) 3,999 8.1 54.9°
Reaches altitude 10° 10:49:55 10° 280° (W) 2,999 7.5 55.2°
Maximum altitude 10:56:29 34° 343° (NNW) 1,686 6.3 55.7°
Drops below altitude 10° 11:02:40 10° 47° (NE) 2,809 7.4 56.1°
Sets 11:05:33 0° 57° (ENE) 3,716 7.9 56.3°
